Weather History for Hollywood, FL

Change the Weather History Date:

Friday, February 15, 2013

  Actual Average (KFLL) Record (KFLL)
Temperature  
Mean Temperature 68 °F 71 °F  
Max Temperature 73 °F 78 °F 89 °F (1995)
Min Temperature 62 °F 64 °F 36 °F (1943)
Degree Days  
Heating Degree Days 0 1  
Month to date heating degree days 15  
Since 1 July heating degree days 95  
Cooling Degree Days 2 7  
Month to date cooling degree days 96  
Year to date cooling degree days 266  
Growing Degree Days 18 (Base 50)    
Moisture  
Dew Point 64 °F    
Average Humidity 94    
Maximum Humidity 100    
Minimum Humidity 79    
Precipitation  
Precipitation 0.81 in 0.12 in 1.40 in (1927)
Month to date precipitation 1.73  
Year to date precipitation 5.36  
Snow  
Snow 0.00 in - - ()
Month to date snowfall  
Since 1 July snowfall  
Snow Depth -    
Sea Level Pressure  
Sea Level Pressure 30.00 in    
Wind  
Wind Speed 6 mph (North)    
Max Wind Speed 12 mph    
Max Gust Speed -    
Visibility 9 miles    
Events Rain    
T = Trace of Precipitation, MM = Missing Value Source: NWS Daily Summary

Daily Weather History Graph

Daily Weather History Graph

Search for Another Location

Airport:

Trip Planner

Search our weather history database for the weather conditions in past years. The results will help you decide how hot, cold, wet, or windy it might be!

Date:

Astronomy

Feb. 15, 2013 Rise Set
Actual Time 6:56 AM EST 6:14 PM EST
Civil Twilight 6:32 AM EST 6:37 PM EST
Nautical Twilight 6:05 AM EST 7:04 PM EST
Astronomical Twilight 5:38 AM EST 7:31 PM EST
Moon 10:09 AM EST (2/15) 11:32 PM EST (2/15)
Length of Visible Light 12h 05m
Length of Day
11h 18m
Waxing Crescent, 30% of the Moon is Illuminated
Feb 15
Waxing Crescent
Feb 17
First Quarter
Feb 25
Full
Mar 4
Last Quarter
Mar 11
New

Hourly Weather History & Observations

Time (EST) Temp. Dew Point Humidity Pressure Visibility Wind Dir Wind Speed Gust Speed Precip Events Conditions
12:13 AM 62.6 °F 60.8 °F 94% 30.02 in 10.0 mi North 6.9 mph - 0.05 in Rain Rain
12:53 AM 63.0 °F 62.1 °F 97% 30.01 in 10.0 mi North 6.9 mph - 0.10 in Rain Light Rain
1:05 AM 62.6 °F 62.6 °F 100% 30.02 in 10.0 mi Calm Calm - 0.00 in Rain Light Rain
1:19 AM 62.6 °F 62.6 °F 100% 30.02 in 10.0 mi NNW 3.5 mph - 0.02 in Rain Light Rain
1:28 AM 62.6 °F 62.6 °F 100% 30.01 in 10.0 mi North 5.8 mph - 0.06 in Rain Heavy Rain
1:53 AM 63.0 °F 62.1 °F 97% 30.00 in 10.0 mi North 3.5 mph - 0.09 in Rain Light Rain
2:53 AM 64.0 °F 63.0 °F 96% 29.99 in 10.0 mi North 5.8 mph - 0.16 in Rain Rain
3:01 AM 64.4 °F 62.6 °F 94% 29.99 in 10.0 mi North 3.5 mph - 0.02 in Rain Light Rain
3:12 AM 64.4 °F 62.6 °F 94% 29.99 in 10.0 mi North 4.6 mph - 0.02 in Rain Light Rain
3:22 AM 64.4 °F 62.6 °F 94% 29.99 in 10.0 mi NNW 4.6 mph - 0.02 in   Overcast
3:34 AM 64.4 °F 62.6 °F 94% 29.99 in 10.0 mi NNW 5.8 mph - 0.02 in Rain Light Rain
3:53 AM 64.0 °F 63.0 °F 96% 29.99 in 10.0 mi NNW 3.5 mph - 0.06 in Rain Rain
4:03 AM 64.4 °F 64.4 °F 100% 29.98 in 10.0 mi Calm Calm - 0.01 in Rain Light Rain
4:18 AM 64.4 °F 64.4 °F 100% 29.98 in 10.0 mi North 4.6 mph - 0.02 in Rain Light Rain
4:29 AM 64.4 °F 64.4 °F 100% 29.98 in 10.0 mi North 4.6 mph - 0.02 in Rain Light Rain
4:36 AM 64.4 °F 64.4 °F 100% 29.98 in 10.0 mi North 4.6 mph - 0.02 in Rain Light Rain
4:53 AM 64.9 °F 64.0 °F 97% 29.98 in 10.0 mi NNE 4.6 mph - 0.02 in   Overcast
5:02 AM 64.4 °F 64.4 °F 100% 29.98 in 10.0 mi NNE 3.5 mph - N/A   Overcast
5:29 AM 66.2 °F 64.4 °F 94% 30.00 in 10.0 mi NNW 6.9 mph - 0.00 in Rain Light Rain
5:53 AM 66.0 °F 64.9 °F 96% 30.00 in 10.0 mi NNE 6.9 mph - 0.02 in Rain Light Rain
6:53 AM 66.9 °F 66.0 °F 97% 30.01 in 10.0 mi NNE 5.8 mph - 0.00 in   Overcast
7:50 AM 68.0 °F 66.2 °F 94% 30.02 in 10.0 mi NNE 6.9 mph - 0.00 in   Overcast
7:53 AM 68.0 °F 66.0 °F 93% 30.03 in 10.0 mi NNE 6.9 mph - 0.00 in   Overcast
8:48 AM 69.8 °F 66.2 °F 88% 30.04 in 10.0 mi NE 4.6 mph - N/A   Overcast
8:53 AM 69.1 °F 66.9 °F 93% 30.04 in 10.0 mi NE 6.9 mph - N/A   Overcast
9:05 AM 69.8 °F 66.2 °F 88% 30.03 in 10.0 mi ENE 6.9 mph - N/A   Overcast
9:53 AM 71.1 °F 66.0 °F 84% 30.03 in 10.0 mi ENE 9.2 mph - N/A   Overcast
10:53 AM 72.0 °F 66.0 °F 81% 30.04 in 10.0 mi NE 9.2 mph - 0.00 in   Overcast
11:53 AM 73.0 °F 66.0 °F 79% 30.04 in 10.0 mi NNE 5.8 mph - 0.00 in   Overcast
12:42 PM 69.8 °F 66.2 °F 88% 30.02 in 10.0 mi North 8.1 mph - 0.04 in Rain Light Rain
12:53 PM 70.0 °F 66.9 °F 90% 30.02 in 10.0 mi NNW 9.2 mph - 0.06 in Rain Rain
1:06 PM 69.8 °F 66.2 °F 88% 30.01 in 2.0 mi NNW 10.4 mph - 0.05 in Rain Rain
1:25 PM 69.8 °F 66.2 °F 88% 30.01 in 2.0 mi North 9.2 mph - 0.08 in Rain Light Rain
1:53 PM 66.9 °F 64.9 °F 93% 30.00 in 2.0 mi North 11.5 mph - 0.10 in Rain Light Rain
1:58 PM 68.0 °F 64.4 °F 88% 30.00 in 5.0 mi North 11.5 mph - 0.00 in Rain Light Rain
2:09 PM 66.2 °F 64.4 °F 94% 29.99 in 5.0 mi North 10.4 mph - 0.01 in Rain Light Rain
2:37 PM 66.2 °F 64.4 °F 94% 29.99 in 5.0 mi NNW 11.5 mph - 0.02 in Rain Light Rain
2:53 PM 66.0 °F 64.9 °F 96% 30.00 in 5.0 mi NNW 11.5 mph - 0.08 in Rain Light Rain
3:53 PM 66.9 °F 64.9 °F 93% 29.99 in 5.0 mi NW 5.8 mph - 0.03 in Rain Light Rain
4:53 PM 66.9 °F 64.9 °F 93% 29.99 in 5.0 mi NW 4.6 mph - 0.03 in Rain Light Rain
5:53 PM 66.9 °F 64.9 °F 93% 29.97 in 10.0 mi North 6.9 mph - 0.01 in Rain Light Rain
6:33 PM 66.2 °F 64.4 °F 94% 29.98 in 10.0 mi North 6.9 mph - 0.00 in Rain Light Rain
6:40 PM 66.2 °F 64.4 °F 94% 29.97 in 10.0 mi North 8.1 mph - 0.00 in Rain Light Rain
6:53 PM 64.9 °F 64.0 °F 97% 29.98 in 10.0 mi NNE 5.8 mph - 0.00 in Rain Light Rain
7:53 PM 64.9 °F 64.0 °F 97% 29.99 in 10.0 mi Calm Calm - 0.02 in Rain Light Rain
8:53 PM 64.9 °F 64.0 °F 97% 29.99 in 10.0 mi Calm Calm - 0.03 in Rain Light Rain
9:35 PM 66.2 °F 64.4 °F 94% 29.99 in 10.0 mi NNW 3.5 mph - 0.00 in   Overcast
9:43 PM 66.2 °F 64.4 °F 94% 29.99 in 10.0 mi NNW 3.5 mph - 0.00 in   Mostly Cloudy
9:53 PM 66.0 °F 64.0 °F 93% 29.99 in 10.0 mi NNW 4.6 mph - 0.00 in   Overcast
10:53 PM 64.9 °F 64.0 °F 97% 29.99 in 10.0 mi North 3.5 mph - N/A   Overcast
11:00 PM 64.4 °F 64.4 °F 100% 29.99 in 10.0 mi Calm Calm - N/A   Mostly Cloudy
11:53 PM 64.9 °F 64.0 °F 97% 29.98 in 10.0 mi Calm Calm - N/A   Mostly Cloudy